contact:dominique.lefevre@mio.osupytheas.fr, maurice.libes@osupytheas.fr, didier.mallarino@osupytheas.fr
Project:EMSO http://www.emso-fr.org/EMSO-France
Depth: 2436.0 m
Title:EMSO Ligure Ouest : Data MII capteur AQUADOPP
Date,Latitude,Longitude,X_East,Y_North,Z_Up,Amplitude_X,Amplitude_Y,Amplitude_Z,Batterie,SoundSpeed,Heading,Pitch,Roll,Pressure,TIS,Speed,Direction
, degrees North, degrees East, m.s-1, m.s-1,m.s-1, 1, 1, 1, Volt, m.s-1, degree, degree, degree, dbar, degree_C, m.s-1, degree
2021-01-16T00:04:03,42.805,6.029,0.016,-0.038,0.015,108.0,108.0,104.0,13.4,1505.2,324.1,-0.7,1.8,2470.332,13.3,0.041,157.2
2021-01-16T00:07:03,42.805,6.029,-0.003,-0.047,0.024,108.0,108.0,103.0,13.4,1505.3,326.2,-0.7,1.8,2470.342,13.31,0.047,183.6
2021-01-16T00:10:03,42.805,6.029,0.03,-0.039,0.01,109.0,107.0,103.0,13.4,1505.3,323.5,-0.7,1.8,2470.354,13.31,0.049,142.4
2021-01-16T00:13:03,42.805,6.029,-0.003,-0.035,0.0,107.0,108.0,103.0,13.3,1505.3,327.5,-0.7,1.8,2470.319,13.32,0.035,184.9
2021-01-16T00:16:03,42.805,6.029,0.023,-0.042,0.004,108.0,109.0,103.0,13.4,1505.3,324.7,-0.7,1.8,2470.321,13.32,0.047,151.3
2021-01-16T00:19:03,42.805,6.029,-0.002,-0.039,0.011,107.0,107.0,104.0,13.4,1505.3,324.2,-0.7,1.8,2470.307,13.32,0.039,182.9
2021-01-16T00:22:03,42.805,6.029,0.026,-0.043,-0.007,107.0,107.0,103.0,13.3,1505.3,327.2,-0.7,1.8,2470.309,13.32,0.05,148.8
2021-01-16T00:25:03,42.805,6.029,0.034,-0.041,-0.021,107.0,108.0,103.0,13.4,1505.3,326.8,-0.7,1.9,2470.334,13.32,0.053,140.3
2021-01-16T00:28:03,42.805,6.029,0.016,-0.017,-0.019,106.0,106.0,103.0,13.3,1505.3,325.4,-0.7,1.8,2470.348,13.32,0.023,136.7
2021-01-16T00:31:03,42.805,6.029,0.0,-0.049,-0.01,107.0,107.0,103.0,13.4,1505.3,324.5,-0.7,1.8,2470.333,13.32,0.049,180.0
2021-01-16T00:34:03,42.805,6.029,0.011,-0.053,0.024,107.0,108.0,103.0,13.4,1505.3,328.5,-0.7,1.8,2470.358,13.32,0.054,168.3
2021-01-16T00:37:03,42.805,6.029,0.007,-0.039,-0.004,106.0,108.0,104.0,13.4,1505.3,325.2,-0.7,1.8,2470.338,13.32,0.039,169.8
2021-01-16T00:40:03,42.805,6.029,0.031,-0.072,-0.032,107.0,108.0,104.0,13.4,1505.3,323.0,-0.8,1.8,2470.295,13.32,0.078,156.7
2021-01-16T00:43:03,42.805,6.029,0.001,-0.017,0.03,108.0,107.0,103.0,13.3,1505.3,326.2,-0.7,1.8,2470.304,13.32,0.017,176.6
2021-01-16T00:46:03,42.805,6.029,0.009,-0.039,-0.027,109.0,108.0,103.0,13.3,1505.3,323.9,-0.7,1.8,2470.318,13.32,0.04,167.0
2021-01-16T00:49:03,42.805,6.029,0.007,-0.05,-0.003,108.0,105.0,104.0,13.4,1505.3,325.5,-0.7,1.8,2470.309,13.32,0.05,172.0
2021-01-16T00:52:03,42.805,6.029,-0.014,-0.073,-0.038,108.0,109.0,104.0,13.3,1505.3,323.1,-0.7,1.8,2470.276,13.32,0.074,190.9
2021-01-16T00:55:03,42.805,6.029,0.024,-0.064,0.008,107.0,107.0,104.0,13.4,1505.3,326.2,-0.7,1.8,2470.264,13.32,0.068,159.4
2021-01-16T00:58:03,42.805,6.029,0.005,-0.053,-0.002,107.0,107.0,104.0,13.3,1505.3,327.3,-0.7,1.8,2470.308,13.32,0.053,174.6
2021-01-16T01:04:03,42.805,6.029,0.003,-0.072,0.024,108.0,109.0,105.0,13.3,1505.2,327.1,-0.8,1.8,2470.316,13.3,0.072,177.6
2021-01-16T01:07:03,42.805,6.029,-0.013,-0.052,-0.041,107.0,108.0,104.0,13.3,1505.3,323.2,-0.7,1.8,2470.294,13.31,0.053,194.0
2021-01-16T01:10:03,42.805,6.029,0.007,-0.039,0.0,107.0,108.0,104.0,13.4,1505.3,325.4,-0.7,1.8,2470.328,13.31,0.039,169.8
2021-01-16T01:13:03,42.805,6.029,0.013,-0.027,0.004,107.0,107.0,105.0,13.4,1505.3,324.5,-0.7,1.9,2470.304,13.32,0.029,154.3
2021-01-16T01:16:03,42.805,6.029,0.023,-0.035,-0.023,107.0,109.0,104.0,13.4,1505.3,326.7,-0.6,1.9,2470.251,13.32,0.041,146.7
2021-01-16T01:19:03,42.805,6.029,0.005,-0.034,-0.016,108.0,107.0,104.0,13.3,1505.3,326.4,-0.7,1.8,2470.299,13.32,0.034,171.6
2021-01-16T01:22:03,42.805,6.029,-0.001,-0.044,0.004,108.0,107.0,104.0,13.3,1505.3,326.4,-0.7,1.9,2470.263,13.32,0.044,181.3
2021-01-16T01:25:03,42.805,6.029,0.007,-0.037,0.015,107.0,107.0,104.0,13.3,1505.3,323.4,-0.7,1.8,2470.288,13.32,0.037,169.3
2021-01-16T01:28:03,42.805,6.029,0.011,-0.034,0.054,108.0,107.0,103.0,13.4,1505.3,325.9,-0.7,1.8,2470.275,13.32,0.035,162.1
2021-01-16T01:31:03,42.805,6.029,0.015,-0.049,-0.009,108.0,107.0,104.0,13.3,1505.3,324.9,-0.7,1.8,2470.285,13.32,0.051,163.0
2021-01-16T01:34:03,42.805,6.029,0.018,-0.063,-0.013,108.0,109.0,103.0,13.4,1505.3,327.9,-0.7,1.8,2470.275,13.32,0.065,164.1
2021-01-16T01:37:03,42.805,6.029,0.012,-0.064,-0.021,108.0,107.0,105.0,13.4,1505.3,327.1,-0.7,1.8,2470.288,13.32,0.065,169.4
2021-01-16T01:40:03,42.805,6.029,0.025,-0.039,0.013,108.0,108.0,104.0,13.4,1505.3,324.8,-0.7,1.8,2470.273,13.32,0.046,147.3
2021-01-16T01:43:03,42.805,6.029,0.028,-0.028,-0.009,108.0,108.0,103.0,13.3,1505.3,327.9,-0.7,1.8,2470.261,13.32,0.039,135.0
2021-01-16T01:46:03,42.805,6.029,0.005,-0.041,-0.002,108.0,108.0,103.0,13.3,1505.3,324.4,-0.7,1.8,2470.262,13.32,0.041,173.0
2021-01-16T01:49:03,42.805,6.029,0.005,-0.052,-0.011,107.0,108.0,104.0,13.4,1505.3,325.1,-0.7,1.8,2470.281,13.32,0.052,174.5
2021-01-16T01:52:03,42.805,6.029,0.029,-0.067,0.029,107.0,108.0,103.0,13.4,1505.3,323.7,-0.7,1.8,2470.258,13.32,0.073,156.6
2021-01-16T01:55:03,42.805,6.029,0.009,-0.033,0.019,107.0,108.0,104.0,13.4,1505.3,326.3,-0.7,1.8,2470.284,13.32,0.034,164.7
2021-01-16T01:58:03,42.805,6.029,0.009,-0.045,-0.02,108.0,107.0,104.0,13.4,1505.3,325.9,-0.7,1.8,2470.262,13.32,0.045,168.7
2021-01-16T02:04:03,42.805,6.029,0.005,-0.061,-0.004,108.0,107.0,104.0,13.3,1505.2,325.8,-0.7,1.8,2470.296,13.3,0.061,175.3
2021-01-16T02:07:03,42.805,6.029,0.009,-0.055,0.005,108.0,109.0,105.0,13.4,1505.3,324.6,-0.7,1.8,2470.275,13.31,0.055,170.7
2021-01-16T02:10:03,42.805,6.029,0.022,-0.063,-0.035,107.0,107.0,104.0,13.4,1505.3,325.6,-0.7,1.8,2470.273,13.31,0.066,160.8
2021-01-16T02:13:03,42.805,6.029,0.01,-0.058,-0.002,108.0,107.0,103.0,13.3,1505.3,323.2,-0.7,1.8,2470.251,13.32,0.058,170.2
2021-01-16T02:16:03,42.805,6.029,0.008,-0.045,-0.004,108.0,108.0,104.0,13.4,1505.3,327.2,-0.7,1.8,2470.252,13.32,0.045,169.9
2021-01-16T02:19:03,42.805,6.029,0.026,-0.04,0.017,107.0,108.0,103.0,13.4,1505.3,324.7,-0.7,1.9,2470.274,13.32,0.047,147.0
2021-01-16T02:22:03,42.805,6.029,0.007,-0.024,-0.018,109.0,108.0,104.0,13.3,1505.3,325.9,-0.7,1.9,2470.207,13.32,0.025,163.7
2021-01-16T02:25:03,42.805,6.029,0.011,-0.018,-0.02,107.0,108.0,104.0,13.4,1505.3,327.8,-0.7,1.8,2470.269,13.32,0.021,148.6
2021-01-16T02:28:03,42.805,6.029,0.01,-0.068,-0.034,107.0,109.0,103.0,13.3,1505.3,325.4,-0.7,1.8,2470.237,13.32,0.068,171.6
2021-01-16T02:31:03,42.805,6.029,0.014,-0.028,-0.016,108.0,109.0,103.0,13.3,1505.3,326.9,-0.7,1.8,2470.292,13.32,0.031,153.4
2021-01-16T02:34:03,42.805,6.029,0.003,-0.055,-0.008,108.0,108.0,104.0,13.4,1505.3,322.7,-0.7,1.8,2470.254,13.32,0.055,176.9
2021-01-16T02:37:03,42.805,6.029,-0.005,-0.036,0.015,108.0,108.0,103.0,13.4,1505.3,327.0,-0.7,1.8,2470.264,13.32,0.036,187.9
2021-01-16T02:40:03,42.805,6.029,0.041,-0.05,-0.001,106.0,108.0,104.0,13.4,1505.3,327.5,-0.7,1.8,2470.226,13.32,0.064,140.7
2021-01-16T02:43:03,42.805,6.029,0.048,-0.05,0.012,106.0,106.0,105.0,13.4,1505.3,327.2,-0.7,1.9,2470.282,13.32,0.069,136.2
2021-01-16T02:46:03,42.805,6.029,0.005,-0.045,-0.001,106.0,108.0,103.0,13.4,1505.3,324.6,-0.7,1.8,2470.258,13.32,0.045,173.7
2021-01-16T02:49:03,42.805,6.029,0.006,-0.043,0.004,107.0,108.0,102.0,13.3,1505.3,327.9,-0.7,1.8,2470.262,13.32,0.043,172.1
2021-01-16T02:52:03,42.805,6.029,0.002,-0.016,-0.012,107.0,109.0,104.0,13.4,1505.3,323.6,-0.7,1.9,2470.276,13.32,0.016,172.9
2021-01-16T02:55:03,42.805,6.029,0.012,-0.04,-0.004,107.0,107.0,103.0,13.3,1505.3,326.1,-0.7,1.9,2470.252,13.32,0.041,163.3
2021-01-16T02:58:03,42.805,6.029,0.021,-0.035,0.012,107.0,108.0,103.0,13.4,1505.3,326.5,-0.7,1.9,2470.208,13.32,0.04,149.0
2021-01-16T03:04:03,42.805,6.029,0.031,-0.047,-0.008,109.0,108.0,104.0,13.3,1505.2,324.4,-0.7,1.8,2470.285,13.3,0.056,146.6
2021-01-16T03:07:03,42.805,6.029,0.028,-0.064,0.02,108.0,107.0,104.0,13.4,1505.3,328.1,-0.7,1.8,2470.291,13.31,0.069,156.4
2021-01-16T03:10:03,42.805,6.029,0.019,-0.04,0.033,107.0,107.0,104.0,13.3,1505.3,326.8,-0.7,1.8,2470.274,13.31,0.044,154.6
2021-01-16T03:13:03,42.805,6.029,0.031,-0.063,-0.021,108.0,109.0,105.0,13.4,1505.3,326.0,-0.7,1.9,2470.261,13.32,0.07,153.8
2021-01-16T03:16:03,42.805,6.029,0.051,-0.045,0.015,106.0,108.0,105.0,13.3,1505.3,323.1,-0.7,1.8,2470.27,13.32,0.068,131.4
2021-01-16T03:19:03,42.805,6.029,0.008,-0.045,0.005,107.0,108.0,103.0,13.4,1505.3,324.3,-0.7,1.8,2470.261,13.32,0.045,169.9
2021-01-16T03:22:03,42.805,6.029,0.023,-0.053,-0.009,108.0,108.0,104.0,13.4,1505.3,324.0,-0.7,1.8,2470.239,13.32,0.057,156.5
2021-01-16T03:25:03,42.805,6.029,0.018,-0.04,-0.003,107.0,108.0,103.0,13.4,1505.3,327.9,-0.7,1.8,2470.265,13.32,0.043,155.8
2021-01-16T03:28:03,42.805,6.029,-0.01,-0.06,0.006,107.0,106.0,104.0,13.4,1505.3,325.9,-0.7,1.8,2470.235,13.32,0.06,189.5
2021-01-16T03:31:03,42.805,6.029,0.012,-0.053,-0.011,108.0,106.0,104.0,13.4,1505.3,325.0,-0.7,1.9,2470.238,13.32,0.054,167.2
2021-01-16T03:34:03,42.805,6.029,0.006,-0.057,-0.015,107.0,107.0,103.0,13.4,1505.3,326.3,-0.7,1.8,2470.253,13.32,0.057,174.0
2021-01-16T03:37:03,42.805,6.029,0.034,-0.058,-0.035,106.0,107.0,103.0,13.3,1505.3,326.7,-0.7,1.8,2470.284,13.32,0.067,149.6
2021-01-16T03:40:03,42.805,6.029,0.006,-0.035,-0.027,108.0,106.0,104.0,13.4,1505.3,325.4,-0.7,1.8,2470.273,13.32,0.035,170.3
2021-01-16T03:43:03,42.805,6.029,0.025,-0.06,-0.004,108.0,108.0,104.0,13.3,1505.3,324.0,-0.7,1.8,2470.23,13.32,0.064,157.4
2021-01-16T03:46:03,42.805,6.029,0.009,-0.041,0.003,107.0,107.0,104.0,13.3,1505.3,327.2,-0.7,1.9,2470.219,13.32,0.041,167.6
2021-01-16T03:49:03,42.805,6.029,0.009,-0.056,-0.007,107.0,108.0,104.0,13.4,1505.3,323.0,-0.7,1.9,2470.272,13.32,0.056,170.9
2021-01-16T03:52:03,42.805,6.029,-0.004,-0.061,0.009,109.0,107.0,104.0,13.4,1505.3,324.7,-0.7,1.9,2470.216,13.32,0.061,183.7
2021-01-16T03:55:03,42.805,6.029,0.0,-0.029,0.0,106.0,108.0,104.0,13.3,1505.3,326.5,-0.7,1.8,2470.272,13.32,0.028,180.0
2021-01-16T03:58:03,42.805,6.029,0.014,-0.049,-0.022,107.0,108.0,103.0,13.4,1505.3,326.8,-0.7,1.8,2470.234,13.32,0.05,164.1
2021-01-16T04:04:03,42.805,6.029,-0.017,-0.055,-0.039,108.0,107.0,104.0,13.4,1505.2,326.4,-0.7,1.8,2470.294,13.3,0.057,197.2
2021-01-16T04:07:03,42.805,6.029,0.034,-0.041,0.01,108.0,107.0,104.0,13.4,1505.3,323.7,-0.7,1.9,2470.249,13.31,0.053,140.3
2021-01-16T04:10:03,42.805,6.029,0.038,-0.06,-0.013,107.0,107.0,104.0,13.3,1505.3,323.3,-0.7,1.8,2470.285,13.31,0.071,147.7
2021-01-16T04:13:03,42.805,6.029,0.007,-0.038,-0.009,106.0,108.0,103.0,13.4,1505.3,326.1,-0.7,1.8,2470.247,13.32,0.038,169.6
2021-01-16T04:16:03,42.805,6.029,0.026,-0.044,0.012,107.0,108.0,103.0,13.4,1505.3,324.4,-0.7,1.8,2470.291,13.32,0.051,149.4
2021-01-16T04:19:03,42.805,6.029,0.028,-0.051,-0.014,107.0,108.0,103.0,13.4,1505.3,327.9,-0.7,1.9,2470.27,13.32,0.058,151.2
2021-01-16T04:22:03,42.805,6.029,0.003,-0.067,-0.019,108.0,107.0,104.0,13.3,1505.3,324.7,-0.7,1.8,2470.259,13.32,0.067,177.4
2021-01-16T04:25:03,42.805,6.029,0.029,-0.037,0.049,106.0,108.0,103.0,13.4,1505.3,323.8,-0.7,1.8,2470.318,13.32,0.047,141.9
2021-01-16T04:28:03,42.805,6.029,0.015,-0.048,0.001,108.0,107.0,103.0,13.4,1505.3,324.7,-0.7,1.8,2470.268,13.32,0.05,162.6
2021-01-16T04:31:03,42.805,6.029,0.043,-0.043,0.01,107.0,108.0,104.0,13.4,1505.3,325.6,-0.7,1.8,2470.233,13.32,0.06,135.0
2021-01-16T04:34:03,42.805,6.029,0.041,-0.051,-0.025,107.0,109.0,104.0,13.4,1505.3,326.5,-0.7,1.8,2470.27,13.32,0.065,141.2
2021-01-16T04:37:03,42.805,6.029,0.006,-0.047,-0.014,106.0,107.0,104.0,13.4,1505.3,326.5,-0.7,1.8,2470.298,13.32,0.047,172.7
2021-01-16T04:40:03,42.805,6.029,0.023,-0.045,-0.024,107.0,108.0,103.0,13.4,1505.3,325.7,-0.7,1.9,2470.282,13.32,0.05,152.9
2021-01-16T04:43:03,42.805,6.029,0.0,-0.045,-0.01,107.0,107.0,104.0,13.4,1505.3,325.7,-0.7,1.8,2470.265,13.32,0.045,180.0
2021-01-16T04:46:03,42.805,6.029,0.026,-0.037,0.001,107.0,107.0,104.0,13.4,1505.3,326.0,-0.7,1.8,2470.264,13.32,0.045,144.9
2021-01-16T04:49:03,42.805,6.029,0.009,-0.042,0.006,107.0,107.0,104.0,13.4,1505.3,323.6,-0.7,1.8,2470.271,13.32,0.042,167.9
2021-01-16T04:52:03,42.805,6.029,0.024,-0.029,0.015,107.0,108.0,103.0,13.4,1505.3,328.5,-0.7,1.8,2470.293,13.32,0.037,140.4
2021-01-16T04:55:03,42.805,6.029,0.021,-0.057,-0.028,107.0,108.0,103.0,13.4,1505.3,324.5,-0.7,1.8,2470.29,13.32,0.06,159.8
2021-01-16T04:58:03,42.805,6.029,0.013,-0.05,0.011,107.0,109.0,104.0,13.3,1505.3,326.5,-0.7,1.8,2470.298,13.32,0.051,165.4
2021-01-16T05:04:03,42.805,6.029,0.015,-0.037,0.013,108.0,109.0,104.0,13.4,1505.2,326.9,-0.7,1.8,2470.318,13.3,0.039,157.9
2021-01-16T05:07:03,42.805,6.029,0.024,-0.045,0.014,107.0,108.0,104.0,13.4,1505.3,328.4,-0.7,1.8,2470.329,13.31,0.051,151.9
2021-01-16T05:10:03,42.805,6.029,0.029,-0.041,-0.004,107.0,107.0,104.0,13.4,1505.3,323.4,-0.7,1.8,2470.305,13.31,0.05,144.7
2021-01-16T05:13:03,42.805,6.029,0.017,-0.067,-0.011,107.0,108.0,105.0,13.4,1505.3,328.2,-0.7,1.8,2470.333,13.32,0.069,165.8
2021-01-16T05:16:03,42.805,6.029,0.023,-0.061,-0.029,107.0,107.0,103.0,13.4,1505.3,326.5,-0.6,1.8,2470.302,13.32,0.065,159.3
2021-01-16T05:19:03,42.805,6.029,0.012,-0.05,-0.019,108.0,107.0,104.0,13.4,1505.3,328.1,-0.7,1.8,2470.305,13.32,0.051,166.5
2021-01-16T05:22:03,42.805,6.029,0.014,-0.041,0.02,108.0,108.0,104.0,13.4,1505.3,326.6,-0.7,1.8,2470.305,13.32,0.043,161.1
2021-01-16T05:25:03,42.805,6.029,0.023,-0.058,-0.019,107.0,106.0,104.0,13.3,1505.3,326.4,-0.7,1.9,2470.293,13.32,0.062,158.4
2021-01-16T05:28:03,42.805,6.029,0.013,-0.026,0.004,108.0,107.0,104.0,13.3,1505.3,324.8,-0.7,1.8,2470.369,13.32,0.029,153.4
2021-01-16T05:31:03,42.805,6.029,0.031,-0.051,0.002,109.0,107.0,104.0,13.4,1505.3,324.0,-0.7,1.8,2470.308,13.32,0.059,148.7
2021-01-16T05:34:03,42.805,6.029,0.034,-0.073,0.032,108.0,107.0,105.0,13.4,1505.3,324.6,-0.7,1.8,2470.332,13.32,0.08,155.0
2021-01-16T05:37:03,42.805,6.029,0.021,-0.064,0.028,107.0,107.0,104.0,13.4,1505.3,328.2,-0.7,1.8,2470.315,13.32,0.067,161.8
2021-01-16T05:40:03,42.805,6.029,0.026,-0.04,-0.012,107.0,108.0,104.0,13.3,1505.3,323.3,-0.7,1.8,2470.353,13.32,0.047,147.0
2021-01-16T05:43:03,42.805,6.029,0.02,-0.042,-0.044,108.0,108.0,103.0,13.4,1505.3,326.0,-0.7,1.8,2470.34,13.32,0.046,154.5
2021-01-16T05:46:03,42.805,6.029,0.039,-0.05,0.008,107.0,107.0,104.0,13.3,1505.3,323.3,-0.7,1.8,2470.356,13.32,0.063,142.0
2021-01-16T05:49:03,42.805,6.029,0.009,-0.059,-0.013,108.0,108.0,103.0,13.4,1505.3,326.0,-0.7,1.8,2470.39,13.32,0.059,171.3
2021-01-16T05:52:03,42.805,6.029,0.028,-0.051,0.027,108.0,107.0,103.0,13.3,1505.3,323.7,-0.7,1.8,2470.353,13.32,0.058,151.2
2021-01-16T05:55:03,42.805,6.029,0.036,-0.068,-0.019,107.0,107.0,104.0,13.3,1505.3,326.5,-0.7,1.8,2470.344,13.32,0.076,152.1
2021-01-16T05:58:03,42.805,6.029,0.032,-0.04,0.012,107.0,107.0,104.0,13.3,1505.3,328.2,-0.7,1.8,2470.334,13.32,0.051,141.3
2021-01-16T06:04:03,42.805,6.029,0.006,-0.059,0.028,106.0,108.0,104.0,13.4,1505.2,327.5,-0.7,1.8,2470.397,13.3,0.059,174.2
2021-01-16T06:07:03,42.805,6.029,0.024,-0.059,0.007,109.0,107.0,104.0,13.4,1505.3,324.2,-0.7,1.8,2470.409,13.31,0.063,157.9
2021-01-16T06:10:03,42.805,6.029,0.024,-0.036,0.011,108.0,109.0,104.0,13.4,1505.3,325.7,-0.7,1.8,2470.376,13.31,0.043,146.3
2021-01-16T06:13:03,42.805,6.029,0.012,-0.049,-0.005,107.0,106.0,104.0,13.4,1505.3,324.5,-0.7,1.8,2470.394,13.32,0.05,166.2
2021-01-16T06:16:03,42.805,6.029,-0.012,-0.039,-0.025,107.0,107.0,105.0,13.4,1505.3,326.9,-0.7,1.8,2470.36,13.32,0.04,197.1
2021-01-16T06:19:03,42.805,6.029,0.007,-0.066,0.008,108.0,106.0,105.0,13.4,1505.3,326.8,-0.7,1.8,2470.414,13.32,0.066,173.9
2021-01-16T06:22:03,42.805,6.029,0.028,-0.061,0.008,106.0,107.0,104.0,13.4,1505.3,324.7,-0.7,1.8,2470.358,13.32,0.067,155.3
2021-01-16T06:25:03,42.805,6.029,-0.002,-0.06,0.018,107.0,107.0,104.0,13.4,1505.3,325.2,-0.7,1.8,2470.377,13.32,0.06,181.9
2021-01-16T06:28:03,42.805,6.029,0.006,-0.066,-0.02,107.0,107.0,104.0,13.3,1505.3,325.5,-0.7,1.8,2470.389,13.32,0.066,174.8
2021-01-16T06:31:03,42.805,6.029,0.01,-0.041,-0.029,107.0,108.0,104.0,13.4,1505.3,324.7,-0.7,1.8,2470.438,13.32,0.042,166.3
2021-01-16T06:34:03,42.805,6.029,0.003,-0.052,0.016,107.0,107.0,102.0,13.4,1505.3,328.2,-0.7,1.8,2470.371,13.32,0.052,176.7
2021-01-16T06:37:03,42.805,6.029,0.02,-0.057,0.0,107.0,107.0,104.0,13.4,1505.3,327.2,-0.7,1.8,2470.431,13.32,0.06,160.7
2021-01-16T06:40:03,42.805,6.029,0.007,-0.044,0.014,107.0,107.0,104.0,13.4,1505.3,326.6,-0.7,1.8,2470.439,13.32,0.044,171.0
2021-01-16T06:43:03,42.805,6.029,0.026,-0.047,-0.008,108.0,108.0,104.0,13.4,1505.3,324.8,-0.7,1.9,2470.421,13.32,0.053,151.0
2021-01-16T06:46:03,42.805,6.029,0.015,-0.048,-0.016,107.0,108.0,103.0,13.3,1505.3,325.7,-0.8,1.8,2470.408,13.32,0.05,162.6
2021-01-16T06:49:03,42.805,6.029,0.024,-0.045,-0.023,108.0,107.0,104.0,13.4,1505.3,324.9,-0.7,1.9,2470.423,13.32,0.051,151.9
2021-01-16T06:52:03,42.805,6.029,0.01,-0.061,-0.034,108.0,108.0,104.0,13.4,1505.3,324.5,-0.7,1.8,2470.426,13.32,0.061,170.7
2021-01-16T06:55:03,42.805,6.029,0.026,-0.053,0.012,109.0,107.0,103.0,13.3,1505.3,324.9,-0.7,1.8,2470.4,13.32,0.059,153.9
2021-01-16T06:58:03,42.805,6.029,0.023,-0.032,-0.012,107.0,107.0,103.0,13.4,1505.3,323.6,-0.7,1.8,2470.475,13.32,0.039,144.3
2021-01-16T07:04:03,42.805,6.029,-0.001,-0.053,-0.001,106.0,108.0,103.0,13.4,1505.2,326.6,-0.7,1.8,2470.47,13.3,0.053,181.1
2021-01-16T07:07:03,42.805,6.029,0.004,-0.062,-0.018,107.0,107.0,103.0,13.3,1505.3,324.1,-0.7,1.8,2470.473,13.31,0.062,176.3
2021-01-16T07:10:03,42.805,6.029,0.017,-0.043,-0.002,106.0,107.0,104.0,13.3,1505.3,322.8,-0.7,1.8,2470.505,13.31,0.046,158.4
2021-01-16T07:13:03,42.805,6.029,0.023,-0.038,0.0,107.0,108.0,103.0,13.4,1505.3,324.3,-0.7,1.8,2470.459,13.32,0.044,148.8
2021-01-16T07:16:03,42.805,6.029,0.023,-0.041,-0.001,108.0,106.0,104.0,13.4,1505.3,326.7,-0.7,1.8,2470.477,13.32,0.047,150.7
2021-01-16T07:19:03,42.805,6.029,0.016,-0.061,0.002,107.0,106.0,103.0,13.3,1505.3,324.8,-0.7,1.8,2470.501,13.32,0.063,165.3
2021-01-16T07:22:03,42.805,6.029,0.009,-0.028,0.002,108.0,106.0,104.0,13.4,1505.3,325.5,-0.7,1.9,2470.472,13.32,0.029,162.2
2021-01-16T07:25:03,42.805,6.029,0.024,-0.049,0.008,107.0,107.0,103.0,13.4,1505.3,327.9,-0.7,1.8,2470.485,13.32,0.054,153.9
2021-01-16T07:28:03,42.805,6.029,0.033,-0.063,0.027,108.0,108.0,102.0,13.3,1505.3,326.9,-0.7,1.8,2470.497,13.32,0.071,152.4
2021-01-16T07:31:03,42.805,6.029,0.026,-0.063,-0.02,106.0,108.0,103.0,13.3,1505.3,328.2,-0.7,1.8,2470.541,13.32,0.068,157.6
2021-01-16T07:34:03,42.805,6.029,0.005,-0.066,-0.017,107.0,107.0,103.0,13.4,1505.3,324.4,-0.7,1.8,2470.504,13.32,0.066,175.7
2021-01-16T07:37:03,42.805,6.029,0.01,-0.037,-0.008,108.0,107.0,104.0,13.4,1505.3,326.1,-0.7,1.8,2470.498,13.32,0.038,164.9
2021-01-16T07:40:03,42.805,6.029,0.031,-0.05,-0.011,107.0,108.0,104.0,13.3,1505.3,325.1,-0.7,1.8,2470.498,13.32,0.058,148.2
2021-01-16T07:43:03,42.805,6.029,0.035,-0.059,0.007,108.0,108.0,103.0,13.4,1505.3,327.6,-0.7,1.8,2470.515,13.32,0.068,149.3
2021-01-16T07:46:03,42.805,6.029,0.019,-0.05,0.012,107.0,107.0,103.0,13.3,1505.3,323.0,-0.7,1.8,2470.511,13.32,0.053,159.2
2021-01-16T07:49:03,42.805,6.029,0.009,-0.062,-0.032,108.0,107.0,103.0,13.3,1505.3,328.2,-0.7,1.9,2470.516,13.32,0.062,171.7
2021-01-16T07:52:03,42.805,6.029,0.013,-0.059,-0.007,109.0,107.0,105.0,13.4,1505.3,324.1,-0.7,1.8,2470.529,13.32,0.06,167.6
2021-01-16T07:55:03,42.805,6.029,0.009,-0.059,-0.015,107.0,107.0,104.0,13.4,1505.3,324.9,-0.7,1.8,2470.539,13.32,0.059,171.3
2021-01-16T07:58:03,42.805,6.029,0.01,-0.038,-0.006,108.0,107.0,104.0,13.3,1505.3,324.9,-0.7,1.8,2470.513,13.32,0.039,165.3
2021-01-16T08:01:03,42.805,6.029,0.0,-0.05,-0.02,107.0,108.0,103.0,13.4,1505.3,328.2,-0.7,1.8,2470.475,13.32,0.05,180.0
2021-01-16T08:04:03,42.805,6.029,0.023,-0.063,0.006,106.0,108.0,104.0,13.4,1505.3,323.2,-0.7,1.8,2470.54,13.32,0.067,159.9
2021-01-16T08:07:03,42.805,6.029,0.006,-0.061,0.009,109.0,108.0,103.0,13.4,1505.3,326.9,-0.7,1.8,2470.55,13.32,0.061,174.4
2021-01-16T08:10:03,42.805,6.029,0.0,-0.071,-0.001,108.0,107.0,104.0,13.3,1505.3,326.0,-0.7,1.8,2470.482,13.32,0.07,180.0
2021-01-16T08:13:03,42.805,6.029,0.002,-0.067,-0.008,107.0,107.0,104.0,13.4,1505.3,326.3,-0.7,1.8,2470.548,13.32,0.067,178.3
2021-01-16T08:16:03,42.805,6.029,0.025,-0.067,-0.018,107.0,107.0,103.0,13.4,1505.3,326.4,-0.7,1.8,2470.528,13.32,0.071,159.5
2021-01-16T08:19:03,42.805,6.029,0.021,-0.037,0.018,108.0,107.0,105.0,13.3,1505.3,325.6,-0.7,1.8,2470.561,13.32,0.042,150.4
2021-01-16T08:22:03,42.805,6.029,0.008,-0.06,0.023,107.0,106.0,104.0,13.4,1505.3,325.2,-0.7,1.8,2470.557,13.32,0.06,172.4
2021-01-16T08:25:03,42.805,6.029,0.001,-0.054,0.003,109.0,108.0,103.0,13.4,1505.3,326.1,-0.7,1.8,2470.536,13.32,0.054,178.9
2021-01-16T08:28:03,42.805,6.029,0.038,-0.067,0.023,106.0,107.0,105.0,13.4,1505.3,324.4,-0.7,1.8,2470.531,13.32,0.077,150.4
2021-01-16T08:31:03,42.805,6.029,0.021,-0.043,0.005,107.0,108.0,104.0,13.4,1505.3,323.2,-0.7,1.8,2470.558,13.32,0.047,154.0
2021-01-16T08:34:03,42.805,6.029,0.001,-0.061,-0.012,107.0,107.0,105.0,13.4,1505.3,324.1,-0.7,1.8,2470.499,13.32,0.061,179.1
2021-01-16T08:37:03,42.805,6.029,0.014,-0.053,-0.023,108.0,108.0,103.0,13.3,1505.3,323.2,-0.7,1.8,2470.522,13.32,0.054,165.2
2021-01-16T08:40:03,42.805,6.029,-0.003,-0.042,0.012,108.0,110.0,104.0,13.4,1505.3,325.3,-0.7,1.8,2470.52,13.32,0.042,184.1
2021-01-16T08:43:03,42.805,6.029,0.038,-0.052,-0.007,108.0,107.0,103.0,13.4,1505.3,326.0,-0.7,1.8,2470.515,13.32,0.064,143.8
2021-01-16T08:46:03,42.805,6.029,0.027,-0.042,-0.023,107.0,107.0,104.0,13.3,1505.3,326.9,-0.7,1.9,2470.581,13.32,0.049,147.3
2021-01-16T08:49:03,42.805,6.029,0.026,-0.045,0.006,109.0,107.0,105.0,13.4,1505.3,328.1,-0.7,1.8,2470.556,13.32,0.051,150.0
2021-01-16T08:52:03,42.805,6.029,0.019,-0.026,0.016,108.0,107.0,105.0,13.4,1505.3,327.5,-0.7,1.8,2470.56,13.32,0.032,143.8
2021-01-16T08:55:03,42.805,6.029,0.008,-0.077,0.022,107.0,106.0,103.0,13.4,1505.3,328.1,-0.7,1.8,2470.559,13.32,0.077,174.1
2021-01-16T08:58:03,42.805,6.029,0.012,-0.054,0.032,107.0,107.0,105.0,13.4,1505.3,326.3,-0.7,1.8,2470.615,13.32,0.055,167.5
2021-01-16T09:04:03,42.805,6.029,0.0,-0.055,-0.025,107.0,108.0,103.0,13.4,1505.2,325.1,-0.7,1.8,2470.62,13.3,0.055,180.0
2021-01-16T09:07:03,42.805,6.029,0.045,-0.053,0.012,108.0,107.0,105.0,13.4,1505.3,324.4,-0.7,1.8,2470.606,13.31,0.069,139.7
2021-01-16T09:10:03,42.805,6.029,0.018,-0.048,-0.029,108.0,107.0,104.0,13.4,1505.3,326.7,-0.7,1.8,2470.597,13.31,0.051,159.4
2021-01-16T09:13:03,42.805,6.029,0.018,-0.059,-0.007,107.0,108.0,104.0,13.4,1505.3,325.1,-0.7,1.8,2470.637,13.32,0.061,163.0
2021-01-16T09:16:03,42.805,6.029,0.005,-0.049,-0.016,107.0,108.0,103.0,13.4,1505.3,326.9,-0.7,1.8,2470.583,13.32,0.049,174.2
2021-01-16T09:19:03,42.805,6.029,0.015,-0.044,0.0,108.0,107.0,105.0,13.3,1505.3,327.6,-0.7,1.9,2470.596,13.32,0.046,161.2
2021-01-16T09:22:03,42.805,6.029,0.023,-0.06,0.002,107.0,108.0,105.0,13.4,1505.3,326.9,-0.7,1.8,2470.556,13.32,0.064,159.0
2021-01-16T09:25:03,42.805,6.029,0.021,-0.029,0.009,108.0,107.0,103.0,13.4,1505.3,325.5,-0.7,1.8,2470.573,13.32,0.035,144.1
2021-01-16T09:28:03,42.805,6.029,0.007,-0.056,-0.02,107.0,108.0,104.0,13.4,1505.3,325.4,-0.7,1.8,2470.551,13.32,0.056,172.9
2021-01-16T09:31:03,42.805,6.029,0.02,-0.063,0.012,107.0,108.0,104.0,13.3,1505.3,323.7,-0.7,1.8,2470.592,13.32,0.066,162.4
2021-01-16T09:34:03,42.805,6.029,0.003,-0.063,-0.018,108.0,108.0,103.0,13.4,1505.3,327.6,-0.7,1.8,2470.589,13.32,0.063,177.3
2021-01-16T09:37:03,42.805,6.029,0.025,-0.061,0.025,108.0,107.0,104.0,13.4,1505.3,326.3,-0.7,1.8,2470.567,13.32,0.065,157.7
2021-01-16T09:40:03,42.805,6.029,0.009,-0.06,-0.026,108.0,107.0,103.0,13.4,1505.3,326.9,-0.7,1.8,2470.604,13.32,0.06,171.5
2021-01-16T09:43:03,42.805,6.029,0.024,-0.033,0.005,106.0,107.0,102.0,13.3,1505.3,327.6,-0.7,1.8,2470.592,13.32,0.04,144.0
2021-01-16T09:46:03,42.805,6.029,-0.001,-0.048,0.023,107.0,108.0,103.0,13.4,1505.3,326.2,-0.7,1.8,2470.59,13.32,0.048,181.2
2021-01-16T09:52:03,42.805,6.029,0.02,-0.084,0.014,107.0,108.0,104.0,13.3,1505.2,326.9,-0.7,1.8,2470.605,13.3,0.086,166.6
2021-01-16T09:55:03,42.805,6.029,0.012,-0.047,0.0,107.0,107.0,104.0,13.4,1505.3,327.0,-0.7,1.8,2470.623,13.31,0.048,165.7